EW8144 Weather Reports


time (UTC)temp
F
wind
direction
speed
knots
gust
knots
rain 1hr
in
rain 24hr
in
rain mn
in
humidity
%
barometer
mb
20260502232633 49 99 3.5 6.1 0.00 0.00 0.00 73 1018.0
20260502232557 50 97 4.3 6.1 0.00 0.00 0.00 73 1018.3
20260502232501 50 99 4.3 6.1 0.00 0.00 0.00 72 1018.4
20260502232341 50 91 3.5 5.2 0.00 0.00 0.00 72 1018.4
20260502232212 50 97 3.5 7.0 0.00 0.00 0.00 72 1018.4
20260502232056 50 109 3.5 7.0 0.00 0.00 0.00 72 1018.4
20260502232000 51 109 3.5 7.0 0.00 0.00 0.00 72 1018.4
20260502231821 51 121 2.6 7.0 0.00 0.00 0.00 72 1018.4
20260502231714 51 104 2.6 7.0 0.00 0.00 0.00 72 1018.4
20260502231618 51 93 3.5 7.0 0.00 0.00 0.00 72 1018.4
20260502231519 50 81 3.5 7.0 0.00 0.00 0.00 72 1018.4
20260502231356 50 89 4.3 7.0 0.00 0.00 0.00 73 1018.4
20260502231258 50 93 3.5 6.1 0.00 0.00 0.00 73 1018.4
20260502231200 50 96 3.5 6.1 0.00 0.00 0.00 73 1018.4
20260502231040 50 92 3.5 6.1 0.00 0.00 0.00 73 1018.4
20260502231018 50 97 3.5 6.1 0.00 0.00 0.00 73 1018.1
20260502230933 50 96 3.5 6.1 0.00 0.00 0.00 73 1018.4
20260502230837 50 103 3.5 6.1 0.00 0.00 0.00 72 1018.4
20260502230740 50 89 3.5 5.2 0.00 0.00 0.00 73 1018.4
20260502230639 50 70 3.5 7.0 0.00 0.00 0.00 73 1018.4
20260502230538 50 76 3.5 7.0 0.00 0.00 0.00 73 1018.5
20260502230420 50 77 3.5 7.0 0.00 0.00 0.00 72 1018.4
20260502230314 50 88 3.5 7.0 0.00 0.00 0.00 71 1018.5
20260502230216 50 81 3.5 7.0 0.00 0.00 0.00 71 1018.5
20260502230034 50 76 3.5 7.0 0.00 0.00 0.00 70 1018.5
20260502225941 51 78 5.2 7.0 0.00 0.00 0.00 70 1018.5
20260502225812 51 101 4.3 7.0 0.00 0.00 0.00 70 1018.5
20260502225711 51 87 3.5 6.1 0.00 0.00 0.00 70 1018.5
20260502225615 51 99 3.5 4.3 0.00 0.00 0.00 69 1018.6
20260502225549 50 94 3.5 4.3 0.00 0.00 0.00 69 1018.2
20260502225507 51 76 3.5 4.3 0.00 0.00 0.00 69 1018.5
20260502225409 51 45 3.5 4.3 0.00 0.00 0.00 69 1018.6
20260502225312 51 73 3.5 4.3 0.00 0.00 0.00 69 1018.5
20260502225210 51 83 2.6 5.2 0.00 0.00 0.00 68 1018.5
20260502225113 51 83 2.6 5.2 0.00 0.00 0.00 68 1018.6
20260502225014 51 88 2.6 5.2 0.00 0.00 0.00 67 1018.6
20260502224919 52 81 2.6 5.2 0.00 0.00 0.00 67 1018.6
20260502224811 52 85 2.6 5.2 0.00 0.00 0.00 67 1018.6
20260502224714 52 88 2.6 5.2 0.00 0.00 0.00 66 1018.7
20260502224621 52 85 2.6 7.0 0.00 0.00 0.00 66 1018.6
20260502224550 52 83 2.6 7.0 0.00 0.00 0.00 66 1018.3
20260502224452 53 97 3.5 7.0 0.00 0.00 0.00 66 1018.7
20260502224355 53 89 3.5 7.0 0.00 0.00 0.00 65 1018.7
20260502224213 53 83 3.5 7.0 0.00 0.00 0.00 65 1018.7
20260502224138 52 75 2.6 7.0 0.00 0.00 0.00 65 1018.4
20260502224101 53 91 3.5 7.0 0.00 0.00 0.00 65 1018.7
20260502224004 53 91 4.3 7.0 0.00 0.00 0.00 65 1018.7
20260502223847 53 84 4.3 7.0 0.00 0.00 0.00 65 1018.7
20260502223755 53 85 4.3 6.1 0.00 0.00 0.00 64 1018.7
20260502223650 53 80 3.5 5.2 0.00 0.00 0.00 64 1018.7
20260502223532 53 85 3.5 5.2 0.00 0.00 0.00 64 1018.7
20260502223506 53 88 3.5 5.2 0.00 0.00 0.00 64 1018.4
20260502223426 53 91 3.5 5.2 0.00 0.00 0.00 64 1018.7
20260502223304 53 97 2.6 5.2 0.00 0.00 0.00 65 1018.7
20260502223205 53 85 2.6 5.2 0.00 0.00 0.00 65 1018.7
20260502223112 53 97 2.6 4.3 0.00 0.00 0.00 65 1018.7
20260502223059 53 94 2.6 4.3 0.00 0.00 0.00 65 1018.4
20260502223003 53 91 2.6 4.3 0.00 0.00 0.00 65 1018.7
20260502222846 53 93 3.5 4.3 0.00 0.00 0.00 65 1018.7
20260502222749 53 89 3.5 4.3 0.00 0.00 0.00 65 1018.7
20260502222643 53 94 3.5 5.2 0.00 0.00 0.00 65 1018.7
20260502222545 52 85 3.5 5.2 0.00 0.00 0.00 66 1018.7
20260502222451 52 97 3.5 5.2 0.00 0.00 0.00 66 1018.7
20260502222210 52 94 3.5 5.2 0.00 0.00 0.00 67 1018.7
20260502222114 52 91 2.6 5.2 0.00 0.00 0.00 67 1018.7
20260502222016 52 82 3.5 5.2 0.00 0.00 0.00 67 1018.8
20260502221910 52 94 3.5 5.2 0.00 0.00 0.00 67 1018.8
20260502221813 52 93 3.5 5.2 0.00 0.00 0.00 67 1018.7
20260502221721 52 92 3.5 5.2 0.00 0.00 0.00 67 1018.7
20260502221647 52 95 3.5 5.2 0.00 0.00 0.00 67 1018.4
20260502221616 52 94 4.3 5.2 0.00 0.00 0.00 67 1018.7
20260502221517 52 91 4.3 5.2 0.00 0.00 0.00 67 1018.8
20260502221420 52 93 4.3 6.1 0.00 0.00 0.00 67 1018.8
20260502221324 52 96 4.3 6.1 0.00 0.00 0.00 67 1018.8
20260502221156 52 97 4.3 6.1 0.00 0.00 0.00 67 1018.8
20260502221055 52 93 3.5 5.2 0.00 0.00 0.00 67 1018.8
20260502221003 52 94 3.5 6.1 0.00 0.00 0.00 67 1018.8
20260502220857 52 91 3.5 5.2 0.00 0.00 0.00 68 1018.8
20260502220800 52 94 3.5 5.2 0.00 0.00 0.00 68 1018.8
20260502220702 52 107 3.5 5.2 0.00 0.00 0.00 68 1018.8
20260502220624 51 95 2.6 5.2 0.00 0.00 0.00 68 1018.5
20260502220550 52 95 3.5 5.2 0.00 0.00 0.00 68 1018.8
20260502220453 52 104 4.3 5.2 0.00 0.00 0.00 68 1018.9
20260502220340 52 95 4.3 6.1 0.00 0.00 0.00 68 1018.9
20260502220240 52 94 4.3 6.1 0.00 0.00 0.00 68 1018.8
20260502220134 52 86 3.5 6.1 0.00 0.00 0.00 68 1018.8
20260502220035 52 81 3.5 6.1 0.00 0.00 0.00 68 1018.9
20260502215937 52 87 3.5 6.1 0.00 0.00 0.00 68 1018.9
20260502215809 52 105 3.5 6.1 0.00 0.00 0.00 68 1018.9
20260502215713 52 95 3.5 6.1 0.00 0.00 0.00 68 1018.9
20260502215618 52 97 3.5 5.2 0.00 0.00 0.00 68 1018.9
20260502215518 52 89 3.5 6.1 0.00 0.00 0.00 68 1018.9
20260502215413 52 93 3.5 6.1 0.00 0.00 0.00 69 1018.9
20260502215315 52 85 2.6 6.1 0.00 0.00 0.00 68 1018.9
20260502215155 52 93 2.6 6.1 0.00 0.00 0.00 68 1018.9
20260502215119 51 89 2.6 6.1 0.00 0.00 0.00 68 1018.5
20260502215046 52 89 3.5 6.1 0.00 0.00 0.00 68 1018.9
20260502214953 52 95 3.5 6.1 0.00 0.00 0.00 68 1018.9
20260502214855 52 89 3.5 6.1 0.00 0.00 0.00 68 1018.9
20260502214758 52 95 3.5 6.1 0.00 0.00 0.00 68 1018.9
20260502214652 52 98 3.5 5.2 0.00 0.00 0.00 68 1018.8
20260502214530 52 95 3.5 5.2 0.00 0.00 0.00 68 1018.9
20260502214432 52 78 3.5 5.2 0.00 0.00 0.00 68 1018.8
20260502214304 52 90 3.5 5.2 0.00 0.00 0.00 68 1018.8
20260502214210 52 89 3.5 5.2 0.00 0.00 0.00 68 1018.9
20260502214050 52 99 3.5 5.2 0.00 0.00 0.00 68 1018.9
20260502214015 51 82 3.5 5.2 0.00 0.00 0.00 68 1018.6
20260502213945 52 82 3.5 5.2 0.00 0.00 0.00 68 1018.9
20260502213848 52 89 3.5 5.2 0.00 0.00 0.00 67 1018.9
20260502213751 52 101 3.5 5.2 0.00 0.00 0.00 67 1018.9
20260502213653 52 99 3.5 5.2 0.00 0.00 0.00 67 1018.9
20260502213609 51 82 3.5 5.2 0.00 0.00 0.00 67 1018.6
20260502213505 52 89 3.5 5.2 0.00 0.00 0.00 67 1018.9
20260502213408 52 97 3.5 5.2 0.00 0.00 0.00 66 1019.0
20260502213248 52 88 3.5 5.2 0.00 0.00 0.00 65 1018.9
20260502213142 52 80 3.5 5.2 0.00 0.00 0.00 65 1018.9
20260502213044 53 97 4.3 6.1 0.00 0.00 0.00 65 1018.9
20260502212947 53 85 3.5 5.2 0.00 0.00 0.00 64 1019.0
20260502212842 53 99 3.5 5.2 0.00 0.00 0.00 64 1019.0
20260502212749 53 86 3.5 5.2 0.00 0.00 0.00 64 1019.0
20260502212631 53 95 3.5 5.2 0.00 0.00 0.00 64 1019.0
20260502212510 53 82 3.5 5.2 0.00 0.00 0.00 64 1019.0
20260502212342 53 88 2.6 5.2 0.00 0.00 0.00 64 1019.0
20260502212245 53 79 2.6 5.2 0.00 0.00 0.00 64 1019.1
20260502212148 53 92 3.5 5.2 0.00 0.00 0.00 64 1019.0
20260502212052 53 99 3.5 5.2 0.00 0.00 0.00 64 1019.1
20260502212030 53 97 2.6 5.2 0.00 0.00 0.00 64 1018.8
20260502211945 53 99 2.6 4.3 0.00 0.00 0.00 64 1019.0
20260502211849 53 100 2.6 6.1 0.00 0.00 0.00 64 1019.1
20260502211752 53 100 2.6 6.1 0.00 0.00 0.00 64 1019.1
20260502211455 53 95 3.5 6.1 0.00 0.00 0.00 63 1019.1
20260502211359 53 93 3.5 6.1 0.00 0.00 0.00 63 1019.1
20260502211257 54 92 3.5 6.1 0.00 0.00 0.00 63 1019.1
20260502211136 54 103 4.3 6.1 0.00 0.00 0.00 63 1019.1
20260502211037 54 89 4.3 6.1 0.00 0.00 0.00 62 1019.1
20260502210940 54 99 3.5 5.2 0.00 0.00 0.00 61 1019.1
20260502210833 55 97 2.6 5.2 0.00 0.00 0.00 60 1019.1
20260502210736 55 92 2.6 5.2 0.00 0.00 0.00 60 1019.1
20260502210639 55 96 2.6 5.2 0.00 0.00 0.00 60 1019.1
20260502210607 54 95 2.6 5.2 0.00 0.00 0.00 60 1018.8
20260502210535 55 98 2.6 5.2 0.00 0.00 0.00 60 1019.1
20260502210438 55 95 2.6 5.2 0.00 0.00 0.00 59 1019.1
20260502210342 55 97 3.5 5.2 0.00 0.00 0.00 59 1019.1
20260502210211 56 97 2.6 3.5 0.00 0.00 0.00 59 1019.2
20260502210112 56 97 2.6 3.5 0.00 0.00 0.00 59 1019.1
20260502205825 56 80 2.6 3.5 0.00 0.00 0.00 59 1019.2
20260502205702 56 93 2.6 3.5 0.00 0.00 0.00 59 1019.2
20260502205602 56 101 1.7 3.5 0.00 0.00 0.00 59 1019.2
20260502205504 56 95 1.7 3.5 0.00 0.00 0.00 59 1019.2
20260502205334 56 97 1.7 3.5 0.00 0.00 0.00 59 1019.2
20260502205215 56 97 1.7 5.2 0.00 0.00 0.00 59 1019.2
20260502205055 56 87 2.6 5.2 0.00 0.00 0.00 59 1019.2
20260502205003 56 104 2.6 5.2 0.00 0.00 0.00 59 1019.3
20260502204857 56 99 2.6 5.2 0.00 0.00 0.00 59 1019.3
20260502204759 56 90 2.6 5.2 0.00 0.00 0.00 59 1019.2
20260502204701 56 103 2.6 5.2 0.00 0.00 0.00 59 1019.3
20260502204620 55 104 1.7 5.2 0.00 0.00 0.00 59 1019.0
20260502204550 56 87 2.6 5.2 0.00 0.00 0.00 59 1019.3
20260502204433 56 97 2.6 5.2 0.00 0.00 0.00 59 1019.3
20260502204334 56 99 3.5 5.2 0.00 0.00 0.00 59 1019.3
20260502204240 56 95 2.6 3.5 0.00 0.00 0.00 59 1019.3
20260502204152 55 95 1.7 3.5 0.00 0.00 0.00 59 1019.0
20260502204113 56 95 2.6 3.5 0.00 0.00 0.00 59 1019.3
20260502204013 56 95 2.6 3.5 0.00 0.00 0.00 59 1019.3
20260502203917 56 95 1.7 3.5 0.00 0.00 0.00 59 1019.3
20260502203751 56 95 2.6 3.5 0.00 0.00 0.00 59 1019.3
20260502203634 56 95 2.6 3.5 0.00 0.00 0.00 58 1019.4
20260502203518 56 93 2.6 5.2 0.00 0.00 0.00 58 1019.3
20260502203420 56 93 2.6 5.2 0.00 0.00 0.00 59 1019.3
20260502203254 56 93 2.6 5.2 0.00 0.00 0.00 59 1019.3
20260502203152 56 90 2.6 5.2 0.00 0.00 0.00 58 1019.3
20260502203049 56 90 2.6 5.2 0.00 0.00 0.00 58 1019.4
20260502202901 57 94 2.6 5.2 0.00 0.00 0.00 58 1019.4
20260502202805 57 85 2.6 5.2 0.00 0.00 0.00 58 1019.4
20260502202637 57 95 2.6 5.2 0.00 0.00 0.00 57 1019.3
20260502202537 57 91 2.6 5.2 0.00 0.00 0.00 57 1019.4
20260502202439 57 91 2.6 5.2 0.00 0.00 0.00 57 1019.4
20260502202312 57 94 2.6 5.2 0.00 0.00 0.00 57 1019.4
20260502202215 57 94 2.6 5.2 0.00 0.00 0.00 57 1019.4
20260502202118 57 80 2.6 5.2 0.00 0.00 0.00 57 1019.4
20260502202023 57 95 2.6 5.2 0.00 0.00 0.00 57 1019.4
20260502201916 57 98 2.6 3.5 0.00 0.00 0.00 57 1019.5
20260502201818 57 108 2.6 3.5 0.00 0.00 0.00 57 1019.5
20260502201721 57 100 2.6 3.5 0.00 0.00 0.00 57 1019.5
20260502201655 57 91 1.7 3.5 0.00 0.00 0.00 57 1019.2
20260502201614 57 89 2.6 3.5 0.00 0.00 0.00 57 1019.5
20260502201512 57 101 2.6 3.5 0.00 0.00 0.00 57 1019.5
20260502201420 57 95 2.6 3.5 0.00 0.00 0.00 57 1019.5
20260502201314 57 89 2.6 3.5 0.00 0.00 0.00 57 1019.4
20260502201154 57 93 2.6 3.5 0.00 0.00 0.00 57 1019.6
20260502201055 57 93 2.6 3.5 0.00 0.00 0.00 56 1019.5
20260502201026 57 91 2.6 3.5 0.00 0.00 0.00 56 1019.2
20260502200949 57 93 2.6 3.5 0.00 0.00 0.00 56 1019.5
20260502200830 58 95 2.6 3.5 0.00 0.00 0.00 56 1019.5
20260502200732 58 96 2.6 3.5 0.00 0.00 0.00 56 1019.5
20260502200638 58 92 1.7 3.5 0.00 0.00 0.00 56 1019.5
20260502200613 57 79 1.7 3.5 0.00 0.00 0.00 56 1019.2
20260502200531 58 94 1.7 3.5 0.00 0.00 0.00 56 1019.5
20260502200433 58 94 1.7 3.5 0.00 0.00 0.00 56 1019.5
20260502200337 58 95 1.7 3.5 0.00 0.00 0.00 56 1019.5
20260502200229 58 97 2.6 3.5 0.00 0.00 0.00 56 1019.5
20260502200111 58 93 2.6 3.5 0.00 0.00 0.00 55 1019.5
20260502200016 58 93 2.6 3.5 0.00 0.00 0.00 55 1019.4
20260502195918 58 96 2.6 3.5 0.00 0.00 0.00 55 1019.5
20260502195810 58 91 2.6 3.5 0.00 0.00 0.00 55 1019.5
20260502195713 58 97 2.6 3.5 0.00 0.00 0.00 55 1019.5
20260502195552 58 94 1.7 3.5 0.00 0.00 0.00 55 1019.5
20260502195525 58 94 1.7 3.5 0.00 0.00 0.00 55 1019.2
20260502195446 58 89 1.7 3.5 0.00 0.00 0.00 55 1019.5
20260502195333 58 89 1.7 3.5 0.00 0.00 0.00 55 1019.5
20260502195054 58 89 1.7 3.5 0.00 0.00 0.00 54 1019.6
20260502194935 58 89 1.7 3.5 0.00 0.00 0.00 54 1019.5
20260502194828 58 89 2.6 3.5 0.00 0.00 0.00 54 1019.5
20260502194732 58 88 2.6 3.5 0.00 0.00 0.00 54 1019.5
20260502194611 58 90 2.6 4.3 0.00 0.00 0.00 54 1019.6
20260502194457 59 95 2.6 4.3 0.00 0.00 0.00 53 1019.5
20260502194350 59 93 2.6 4.3 0.00 0.00 0.00 53 1019.6
20260502194253 59 93 2.6 4.3 0.00 0.00 0.00 53 1019.5
20260502194154 59 95 2.6 4.3 0.00 0.00 0.00 52 1019.5
20260502194054 59 82 2.6 4.3 0.00 0.00 0.00 52 1019.5
20260502194033 58 89 2.6 4.3 0.00 0.00 0.00 52 1019.2
20260502193946 59 85 2.6 4.3 0.00 0.00 0.00 52 1019.5
20260502193833 59 93 3.5 4.3 0.00 0.00 0.00 53 1019.5
20260502193727 59 84 3.5 4.3 0.00 0.00 0.00 53 1019.5
20260502193630 59 91 2.6 4.3 0.00 0.00 0.00 53 1019.5
20260502193509 59 103 2.6 4.3 0.00 0.00 0.00 53 1019.6
20260502193231 59 95 2.6 4.3 0.00 0.00 0.00 52 1019.5
20260502193134 59 105 2.6 4.3 0.00 0.00 0.00 52 1019.6
20260502193119 59 91 2.6 4.3 0.00 0.00 0.00 52 1019.3
20260502193029 59 91 2.6 4.3 0.00 0.00 0.00 52 1019.6
20260502192932 60 96 2.6 4.3 0.00 0.00 0.00 52 1019.6
20260502192813 60 95 2.6 4.3 0.00 0.00 0.00 52 1019.6
20260502192657 60 98 2.6 4.3 0.00 0.00 0.00 52 1019.6
20260502192633 59 101 2.6 4.3 0.00 0.00 0.00 52 1019.2
20260502192529 60 95 2.6 4.3 0.00 0.00 0.00 52 1019.5
20260502192432 60 93 2.6 4.3 0.00 0.00 0.00 51 1019.6
20260502192330 60 97 1.7 3.5 0.00 0.00 0.00 51 1019.6
20260502192230 60 105 1.7 3.5 0.00 0.00 0.00 51 1019.6
20260502192110 60 89 1.7 2.6 0.00 0.00 0.00 51 1019.6
20260502191952 60 89 1.7 2.6 0.00 0.00 0.00 51 1019.6
20260502191846 60 89 1.7 3.5 0.00 0.00 0.00 51 1019.6
20260502191749 60 95 1.7 3.5 0.00 0.00 0.00 51 1019.5
20260502191552 60 94 0.9 4.3 0.00 0.00 0.00 51 1019.2
20260502191518 60 94 1.7 4.3 0.00 0.00 0.00 50 1019.5
20260502191421 60 94 0.9 4.3 0.00 0.00 0.00 50 1019.5
20260502191324 60 94 1.7 4.3 0.00 0.00 0.00 50 1019.5
20260502191144 60 94 2.6 4.3 0.00 0.00 0.00 50 1019.4
20260502191120 60 94 2.6 4.3 0.00 0.00 0.00 50 1019.1
20260502191034 61 94 3.5 4.3 0.00 0.00 0.00 50 1019.5
20260502190917 61 89 3.5 4.3 0.00 0.00 0.00 50 1019.4
20260502190759 61 100 2.6 4.3 0.00 0.00 0.00 49 1019.5
20260502190657 61 92 2.6 4.3 0.00 0.00 0.00 49 1019.4
20260502190537 61 86 1.7 4.3 0.00 0.00 0.00 49 1019.4
20260502190441 61 99 2.6 4.3 0.00 0.00 0.00 49 1019.4
20260502190334 61 90 2.6 4.3 0.00 0.00 0.00 49 1019.5
20260502190235 61 90 2.6 5.2 0.00 0.00 0.00 49 1019.4
20260502190138 61 84 2.6 5.2 0.00 0.00 0.00 49 1019.5
20260502190057 61 92 2.6 5.2 0.00 0.00 0.00 49 1019.1
20260502185904 61 103 2.6 5.2 0.00 0.00 0.00 48 1019.4
20260502185807 62 95 2.6 5.2 0.00 0.00 0.00 48 1019.4
20260502185648 62 97 2.6 5.2 0.00 0.00 0.00 48 1019.4
20260502185619 61 87 2.6 5.2 0.00 0.00 0.00 48 1019.1
20260502185540 62 96 3.5 5.2 0.00 0.00 0.00 48 1019.4
20260502185442 62 97 3.5 5.2 0.00 0.00 0.00 47 1019.4
20260502185343 62 99 3.5 4.3 0.00 0.00 0.00 47 1019.4
20260502185251 62 90 2.6 4.3 0.00 0.00 0.00 47 1019.4
20260502185145 62 89 2.6 5.2 0.00 0.00 0.00 46 1019.4
20260502185047 62 91 2.6 5.2 0.00 0.00 0.00 46 1019.4
20260502184950 62 87 2.6 5.2 0.00 0.00 0.00 46 1019.4
20260502184843 62 83 2.6 5.2 0.00 0.00 0.00 46 1019.4
20260502184746 62 85 2.6 5.2 0.00 0.00 0.00 46 1019.4
20260502184648 62 102 2.6 5.2 0.00 0.00 0.00 46 1019.4
20260502184602 62 93 2.6 5.2 0.00 0.00 0.00 46 1019.0
20260502184522 63 99 3.5 5.2 0.00 0.00 0.00 46 1019.4
20260502184401 63 94 2.6 5.2 0.00 0.00 0.00 46 1019.4
20260502184305 63 92 3.5 5.2 0.00 0.00 0.00 46 1019.3
20260502184144 63 97 3.5 4.3 0.00 0.00 0.00 45 1019.3
20260502184119 63 79 2.6 4.3 0.00 0.00 0.00 45 1019.0
20260502184035 63 85 3.5 4.3 0.00 0.00 0.00 45 1019.3
20260502183917 63 88 3.5 5.2 0.00 0.00 0.00 45 1019.3
20260502183803 63 91 3.5 4.3 0.00 0.00 0.00 45 1019.3
20260502183659 64 112 3.5 5.2 0.00 0.00 0.00 44 1019.3
20260502183558 64 97 3.5 4.3 0.00 0.00 0.00 44 1019.2
20260502183501 64 101 3.5 5.2 0.00 0.00 0.00 44 1019.2
20260502183404 64 98 3.5 5.2 0.00 0.00 0.00 44 1019.2
20260502183257 64 105 3.5 5.2 0.00 0.00 0.00 44 1019.3
20260502183157 64 85 3.5 4.3 0.00 0.00 0.00 44 1019.3
20260502183102 64 82 3.5 5.2 0.00 0.00 0.00 44 1019.2
20260502183030 63 107 2.6 5.2 0.00 0.00 0.00 44 1018.9
20260502182957 64 96 3.5 5.2 0.00 0.00 0.00 44 1019.3
20260502182859 64 91 3.5 5.2 0.00 0.00 0.00 43 1019.3
20260502182623 64 91 3.5 5.2 0.00 0.00 0.00 43 1019.2
20260502182557 64 93 3.5 5.2 0.00 0.00 0.00 43 1018.9
20260502182513 65 101 4.3 5.2 0.00 0.00 0.00 43 1019.2
20260502182421 65 90 4.3 5.2 0.00 0.00 0.00 43 1019.2
20260502182324 65 97 4.3 6.1 0.00 0.00 0.00 43 1019.2
20260502182152 65 97 4.3 5.2 0.00 0.00 0.00 42 1019.2
20260502182053 65 88 4.3 5.2 0.00 0.00 0.00 42 1019.2
20260502181955 65 92 4.3 5.2 0.00 0.00 0.00 42 1019.2
20260502181859 66 101 4.3 5.2 0.00 0.00 0.00 41 1019.2
20260502181753 66 95 3.5 5.2 0.00 0.00 0.00 41 1019.1
20260502181701 66 94 3.5 4.3 0.00 0.00 0.00 41 1019.1
20260502181602 66 93 3.5 5.2 0.00 0.00 0.00 41 1019.1
20260502181443 66 89 2.6 5.2 0.00 0.00 0.00 40 1019.1
20260502181337 67 80 2.6 3.5 0.00 0.00 0.00 40 1019.1
20260502181237 67 87 2.6 3.5 0.00 0.00 0.00 40 1019.1
20260502181140 67 91 2.6 3.5 0.00 0.00 0.00 40 1019.1
20260502181107 67 82 1.7 3.5 0.00 0.00 0.00 40 1018.8
20260502181036 67 88 2.6 3.5 0.00 0.00 0.00 40 1019.1
20260502180938 67 89 2.6 3.5 0.00 0.00 0.00 39 1019.1
20260502180838 68 85 1.7 2.6 0.00 0.00 0.00 39 1019.1
20260502180720 68 85 1.7 2.6 0.00 0.00 0.00 39 1019.2
20260502180659 67 85 1.7 2.6 0.00 0.00 0.00 39 1018.8
20260502180614 68 85 1.7 2.6 0.00 0.00 0.00 39 1019.1
20260502180515 68 85 1.7 2.6 0.00 0.00 0.00 39 1019.1
20260502180418 68 84 1.7 3.5 0.00 0.00 0.00 39 1019.1
20260502180317 68 84 1.7 3.5 0.00 0.00 0.00 38 1019.1
20260502180155 68 84 1.7 3.5 0.00 0.00 0.00 38 1019.1
20260502170427 73 78 5.2 7.8 0.00 0.00 0.00 32 1019.2
20260502170322 73 103 4.3 8.7 0.00 0.00 0.00 32 1019.1
20260502170202 73 98 5.2 8.7 0.00 0.00 0.00 32 1019.1
20260502164332 74 114 4.3 9.6 0.00 0.00 0.00 31 1019.3
20260502164212 74 97 4.3 9.6 0.00 0.00 0.00 30 1019.4
20260502164145 73 82 3.5 9.6 0.00 0.00 0.00 30 1019.0
20260502164104 74 70 3.5 9.6 0.00 0.00 0.00 29 1019.3
20260502164006 74 85 4.3 9.6 0.00 0.00 0.00 30 1019.3
20260502163909 74 96 5.2 9.6 0.00 0.00 0.00 29 1019.3
20260502163740 74 77 4.3 7.8 0.00 0.00 0.00 30 1019.3
20260502163626 74 111 4.3 7.8 0.00 0.00 0.00 30 1019.3
20260502163526 74 89 5.2 7.8 0.00 0.00 0.00 30 1019.3
20260502163427 74 102 4.3 7.8 0.00 0.00 0.00 30 1019.3
20260502163259 74 96 3.5 7.8 0.00 0.00 0.00 30 1019.3
20260502163200 74 89 4.3 8.7 0.00 0.00 0.00 30 1019.4
20260502163100 74 103 4.3 8.7 0.00 0.00 0.00 30 1019.4
20260502163007 74 76 3.5 8.7 0.00 0.00 0.00 30 1019.4
20260502162859 74 74 4.3 8.7 0.00 0.00 0.00 29 1019.4
20260502162800 74 87 5.2 8.7 0.00 0.00 0.00 30 1019.4
20260502162701 74 95 5.2 10.4 0.00 0.00 0.00 31 1019.4
20260502162635 74 93 5.2 10.4 0.00 0.00 0.00 31 1019.1
20260502162553 74 94 5.2 10.4 0.00 0.00 0.00 30 1019.5
20260502162456 74 92 5.2 10.4 0.00 0.00 0.00 30 1019.5
20260502162357 74 105 6.1 10.4 0.00 0.00 0.00 29 1019.5
20260502162256 74 99 6.1 10.4 0.00 0.00 0.00 29 1019.5
20260502162158 75 88 5.2 10.4 0.00 0.00 0.00 30 1019.5
20260502162057 75 70 5.2 10.4 0.00 0.00 0.00 30 1019.5
20260502161939 75 84 5.2 10.4 0.00 0.00 0.00 29 1019.6
20260502161833 75 72 4.3 9.6 0.00 0.00 0.00 28 1019.5
20260502161714 75 78 4.3 9.6 0.00 0.00 0.00 29 1019.6
20260502161621 75 64 4.3 9.6 0.00 0.00 0.00 29 1019.6
20260502161551 74 102 4.3 9.6 0.00 0.00 0.00 29 1019.2
20260502161512 75 77 5.2 9.6 0.00 0.00 0.00 29 1019.6
20260502161415 75 80 6.1 9.6 0.00 0.00 0.00 28 1019.6
20260502161318 75 89 6.1 9.6 0.00 0.00 0.00 29 1019.6
20260502161208 75 112 6.1 9.6 0.00 0.00 0.00 28 1019.6
20260502161047 75 93 5.2 8.7 0.00 0.00 0.00 29 1019.6
20260502160950 75 97 4.3 8.7 0.00 0.00 0.00 29 1019.6
20260502160834 75 105 5.2 8.7 0.00 0.00 0.00 29 1019.6
20260502160707 75 82 5.2 8.7 0.00 0.00 0.00 29 1019.6
20260502160610 75 75 4.3 8.7 0.00 0.00 0.00 29 1019.7
20260502160509 75 80 3.5 8.7 0.00 0.00 0.00 29 1019.6
20260502160341 75 85 3.5 8.7 0.00 0.00 0.00 30 1019.7
20260502160220 75 99 4.3 8.7 0.00 0.00 0.00 30 1019.6
20260502160126 75 74 4.3 8.7 0.00 0.00 0.00 29 1019.6
20260502152229 76 59 2.6 8.7 0.00 0.00 0.00 28 1020.1
20260502152131 76 64 2.6 8.7 0.00 0.00 0.00 29 1020.1
20260502151853 76 118 5.2 9.6 0.00 0.00 0.00 28 1020.1
20260502151756 76 99 4.3 9.6 0.00 0.00 0.00 29 1020.2
20260502151702 76 83 4.3 9.6 0.00 0.00 0.00 30 1020.2
20260502151634 75 95 4.3 9.6 0.00 0.00 0.00 30 1019.8
20260502151554 76 83 5.2 9.6 0.00 0.00 0.00 29 1020.2
20260502151458 76 91 6.1 9.6 0.00 0.00 0.00 29 1020.2
20260502151400 76 98 6.1 9.6 0.00 0.00 0.00 30 1020.2
20260502151254 76 85 6.1 9.6 0.00 0.00 0.00 28 1020.2
20260502151155 76 73 5.2 9.6 0.00 0.00 0.00 29 1020.2
20260502151057 76 97 2.6 8.7 0.00 0.00 0.00 28 1020.2
20260502151003 76 92 3.5 8.7 0.00 0.00 0.00 28 1020.2
20260502150856 76 69 5.2 8.7 0.00 0.00 0.00 28 1020.3
20260502150800 76 97 5.2 9.6 0.00 0.00 0.00 28 1020.2
20260502150640 76 89 4.3 9.6 0.00 0.00 0.00 29 1020.3
20260502150606 75 57 3.5 9.6 0.00 0.00 0.00 29 1019.9
20260502150532 76 92 4.3 9.6 0.00 0.00 0.00 28 1020.3
20260502150436 76 74 4.3 9.6 0.00 0.00 0.00 27 1020.3
20260502150344 76 57 5.2 9.6 0.00 0.00 0.00 29 1020.3
20260502150224 76 80 4.3 9.6 0.00 0.00 0.00 28 1020.3
20260502150201 75 77 4.3 9.6 0.00 0.00 0.00 28 1019.9
20260502150116 76 54 6.1 9.6 0.00 0.00 0.00 29 1020.3
20260502140104 76 59 4.3 7.8 0.00 0.00 0.00 29 1020.9
20260502130735 75 105 5.2 8.7 0.00 0.00 0.00 30 1021.6
20260502130637 75 81 5.2 8.7 0.00 0.00 0.00 31 1021.7
20260502130537 75 36 5.2 8.7 0.00 0.00 0.00 30 1021.7
20260502130239 75 33 3.5 7.8 0.00 0.00 0.00 31 1021.7
20260502130120 75 104 5.2 7.8 0.00 0.00 0.00 30 1021.7
20260502123753 74 51 4.3 9.6 0.00 0.00 0.00 33 1021.9
20260502123652 74 32 4.3 9.6 0.00 0.00 0.00 33 1021.9
20260502123618 74 61 3.5 9.6 0.00 0.00 0.00 32 1021.7
20260502123543 74 55 5.2 9.6 0.00 0.00 0.00 33 1021.9
20260502123404 74 103 6.1 9.6 0.00 0.00 0.00 32 1021.9
20260502123311 74 97 6.1 10.4 0.00 0.00 0.00 33 1021.9
20260502123212 74 31 6.1 11.3 0.00 0.00 0.00 32 1022.0
20260502123147 74 80 5.2 11.3 0.00 0.00 0.00 32 1021.8
20260502123103 75 82 5.2 11.3 0.00 0.00 0.00 32 1022.0
20260502123004 75 64 4.3 11.3 0.00 0.00 0.00 33 1022.0
20260502122907 74 106 5.2 11.3 0.00 0.00 0.00 32 1022.0
20260502122800 74 94 6.1 11.3 0.00 0.00 0.00 32 1022.0
20260502122702 74 97 4.3 11.3 0.00 0.00 0.00 31 1022.1
20260502122609 74 68 6.1 11.3 0.00 0.00 0.00 31 1022.1
20260502122510 75 45 7.8 11.3 0.00 0.00 0.00 32 1022.1
20260502122403 75 75 5.2 10.4 0.00 0.00 0.00 33 1022.2
20260502122306 75 52 3.5 10.4 0.00 0.00 0.00 32 1022.2
20260502122207 75 107 6.1 10.4 0.00 0.00 0.00 31 1022.2
20260502122115 74 93 5.2 10.4 0.00 0.00 0.00 31 1021.9
20260502122038 75 85 5.2 10.4 0.00 0.00 0.00 31 1022.2
20260502121945 75 78 4.3 9.6 0.00 0.00 0.00 31 1022.3
20260502121848 74 38 5.2 10.4 0.00 0.00 0.00 31 1022.3
20260502121750 74 102 4.3 10.4 0.00 0.00 0.00 31 1022.2
20260502121644 74 48 1.7 10.4 0.00 0.00 0.00 30 1022.3
20260502121524 74 98 1.7 10.4 0.00 0.00 0.00 29 1022.3
20260502121405 74 114 3.5 10.4 0.00 0.00 0.00 30 1022.3
20260502121238 74 87 5.2 10.4 0.00 0.00 0.00 29 1022.4
20260502121144 75 60 5.2 10.4 0.00 0.00 0.00 27 1022.4
20260502121044 75 117 6.1 10.4 0.00 0.00 0.00 29 1022.4
20260502121010 74 93 6.1 9.6 0.00 0.00 0.00 29 1022.1
20260502120939 75 100 6.1 10.4 0.00 0.00 0.00 30 1022.4
20260502120840 75 89 6.1 10.4 0.00 0.00 0.00 30 1022.4
20260502120722 75 107 5.2 10.4 0.00 0.00 0.00 30 1022.4
20260502120624 74 98 3.5 10.4 0.00 0.00 0.00 29 1022.4
20260502120601 74 103 2.6 10.4 0.00 0.00 0.00 29 1022.2
20260502120521 74 118 4.3 10.4 0.00 0.00 0.00 29 1022.5
20260502120402 74 93 6.1 10.4 0.00 0.00 0.00 30 1022.4
20260502120306 74 147 7.0 10.4 0.00 0.00 0.00 28 1022.4
20260502120156 74 107 6.1 10.4 0.00 0.00 0.00 29 1022.4
20260502115914 74 118 7.0 10.4 0.00 0.00 0.00 30 1022.4
20260502115818 74 91 5.2 10.4 0.00 0.00 0.00 31 1022.5
20260502115655 74 112 3.5 7.8 0.00 0.00 0.00 29 1022.5
20260502115555 74 77 3.5 7.8 0.00 0.00 0.00 30 1022.5
20260502115457 74 94 4.3 8.7 0.00 0.00 0.00 29 1022.5
20260502115401 74 78 4.3 9.6 0.00 0.00 0.00 30 1022.5
20260502115254 74 84 3.5 9.6 0.00 0.00 0.00 29 1022.5
20260502115154 74 101 2.6 9.6 0.00 0.00 0.00 30 1022.5
20260502115059 74 74 2.6 10.4 0.00 0.00 0.00 31 1022.6
20260502115026 73 93 2.6 10.4 0.00 0.00 0.00 31 1022.4
20260502114952 74 77 3.5 10.4 0.00 0.00 0.00 30 1022.6
20260502114834 74 64 5.2 10.4 0.00 0.00 0.00 28 1022.6
20260502114738 74 112 6.1 10.4 0.00 0.00 0.00 29 1022.6
20260502114620 74 69 5.2 10.4 0.00 0.00 0.00 29 1022.6
20260502114555 73 56 5.2 10.4 0.00 0.00 0.00 30 1022.4
20260502114512 74 69 5.2 10.4 0.00 0.00 0.00 31 1022.6
20260502114354 74 87 6.1 10.4 0.00 0.00 0.00 31 1022.6
20260502114133 74 63 4.3 9.6 0.00 0.00 0.00 30 1022.7
20260502114033 74 56 3.5 12.2 0.00 0.00 0.00 30 1022.7
20260502113937 74 80 5.2 12.2 0.00 0.00 0.00 31 1022.7
20260502113839 74 97 5.2 12.2 0.00 0.00 0.00 30 1022.7
20260502113734 74 75 5.2 12.2 0.00 0.00 0.00 31 1022.7
20260502113639 74 76 4.3 12.2 0.00 0.00 0.00 30 1022.7
20260502113540 74 78 4.3 12.2 0.00 0.00 0.00 29 1022.8
20260502113442 74 81 5.2 12.2 0.00 0.00 0.00 30 1022.7
20260502113335 73 78 7.0 12.2 0.00 0.00 0.00 29 1022.8
20260502113151 73 120 7.0 12.2 0.00 0.00 0.00 29 1022.8
20260502113052 73 120 4.3 8.7 0.00 0.00 0.00 28 1022.7
20260502113029 73 103 3.5 8.7 0.00 0.00 0.00 30 1022.5
20260502112924 73 89 4.3 8.7 0.00 0.00 0.00 30 1022.8
20260502112830 73 70 4.3 8.7 0.00 0.00 0.00 29 1022.8
20260502112712 73 37 4.3 8.7 0.00 0.00 0.00 28 1022.8
20260502112635 73 49 3.5 8.7 0.00 0.00 0.00 28 1022.7
20260502112602 73 49 4.3 8.7 0.00 0.00 0.00 29 1022.9
20260502112444 73 69 6.1 8.7 0.00 0.00 0.00 30 1022.9
20260502112347 73 111 6.1 8.7 0.00 0.00 0.00 31 1023.0
20260502112247 73 97 6.1 8.7 0.00 0.00 0.00 32 1023.0
20260502112013 73 68 3.5 7.0 0.00 0.00 0.00 35 1023.0
20260502111855 73 51 3.5 6.1 0.00 0.00 0.00 35 1023.0
20260502111749 73 93 3.5 6.1 0.00 0.00 0.00 36 1023.1
20260502111653 73 78 3.5 8.7 0.00 0.00 0.00 36 1023.1
20260502111555 73 102 3.5 8.7 0.00 0.00 0.00 38 1023.0
20260502111524 73 103 2.6 8.7 0.00 0.00 0.00 38 1022.9
20260502111429 73 73 2.6 8.7 0.00 0.00 0.00 35 1023.1
20260502111336 73 16 3.5 9.6 0.00 0.00 0.00 37 1023.1
20260502111216 73 97 2.6 9.6 0.00 0.00 0.00 35 1023.1
20260502111152 72 79 2.6 9.6 0.00 0.00 0.00 35 1022.9
20260502111046 73 101 4.3 9.6 0.00 0.00 0.00 35 1023.2
20260502110948 73 91 3.5 9.6 0.00 0.00 0.00 35 1023.2
20260502110852 73 102 3.5 9.6 0.00 0.00 0.00 34 1023.2
20260502110727 73 99 4.3 9.6 0.00 0.00 0.00 35 1023.2
20260502110613 73 98 6.1 10.4 0.00 0.00 0.00 36 1023.2
20260502110514 73 100 5.2 10.4 0.00 0.00 0.00 36 1023.2
20260502110406 73 35 4.3 11.3 0.00 0.00 0.00 34 1023.2
20260502110308 73 89 6.1 11.3 0.00 0.00 0.00 35 1023.2
20260502110126 73 104 7.0 11.3 0.00 0.00 0.00 34 1023.2
20260502110055 72 70 6.1 11.3 0.00 0.00 0.00 34 1023.1
20260502105956 73 128 6.1 11.3 0.00 0.00 0.00 34 1023.4
20260502105902 73 77 7.0 11.3 0.00 0.00 0.00 34 1023.3
20260502105806 73 78 5.2 11.3 0.00 0.00 0.00 35 1023.3
20260502105647 73 39 6.1 11.3 0.00 0.00 0.00 34 1023.4
20260502105621 72 55 6.1 11.3 0.00 0.00 0.00 33 1023.2
20260502105539 73 82 6.1 11.3 0.00 0.00 0.00 33 1023.4
20260502105442 72 91 4.3 9.6 0.00 0.00 0.00 36 1023.4
20260502105346 72 97 3.5 8.7 0.00 0.00 0.00 33 1023.4
20260502105238 72 82 4.3 8.7 0.00 0.00 0.00 33 1023.4
20260502105146 72 1 5.2 8.7 0.00 0.00 0.00 33 1023.4
20260502105046 72 87 2.6 8.7 0.00 0.00 0.00 34 1023.4
20260502104917 72 41 3.5 8.7 0.00 0.00 0.00 34 1023.5
20260502104758 72 72 4.3 8.7 0.00 0.00 0.00 35 1023.5
20260502104702 72 60 4.3 8.7 0.00 0.00 0.00 35 1023.5
20260502104625 72 66 3.5 8.7 0.00 0.00 0.00 35 1023.3
20260502104552 72 31 4.3 8.7 0.00 0.00 0.00 35 1023.5
20260502104459 72 114 3.5 8.7 0.00 0.00 0.00 35 1023.5
20260502104402 72 96 3.5 7.0 0.00 0.00 0.00 37 1023.6
20260502104304 72 90 2.6 7.8 0.00 0.00 0.00 37 1023.6
20260502104154 72 74 4.3 7.8 0.00 0.00 0.00 35 1023.5
20260502104054 72 112 4.3 10.4 0.00 0.00 0.00 36 1023.6
20260502103935 72 110 3.5 10.4 0.00 0.00 0.00 35 1023.6
20260502103829 72 89 4.3 10.4 0.00 0.00 0.00 34 1023.6
20260502103735 72 78 4.3 10.4 0.00 0.00 0.00 34 1023.7
20260502103638 72 82 5.2 10.4 0.00 0.00 0.00 33 1023.7
20260502103538 72 66 5.2 10.4 0.00 0.00 0.00 34 1023.7
20260502103513 72 78 5.2 10.4 0.00 0.00 0.00 34 1023.5
20260502103432 72 84 6.1 10.4 0.00 0.00 0.00 33 1023.7
20260502103336 72 105 7.0 10.4 0.00 0.00 0.00 34 1023.7
20260502103215 72 89 6.1 10.4 0.00 0.00 0.00 35 1023.7
20260502103144 72 92 5.2 10.4 0.00 0.00 0.00 35 1023.5
20260502103113 72 84 4.3 9.6 0.00 0.00 0.00 35 1023.7
20260502103012 72 89 3.5 9.6 0.00 0.00 0.00 33 1023.7
20260502102854 72 66 3.5 9.6 0.00 0.00 0.00 33 1023.7
20260502102729 72 95 6.1 9.6 0.00 0.00 0.00 33 1023.8
20260502102631 72 92 5.2 9.6 0.00 0.00 0.00 34 1023.8
20260502102511 73 115 3.5 7.0 0.00 0.00 0.00 33 1023.8
20260502102409 73 108 2.6 8.7 0.00 0.00 0.00 33 1023.8
20260502102312 73 99 2.6 8.7 0.00 0.00 0.00 33 1023.8
20260502102213 73 74 1.7 8.7 0.00 0.00 0.00 34 1023.8
20260502102141 72 103 1.7 8.7 0.00 0.00 0.00 34 1023.6
20260502102102 72 55 2.6 8.7 0.00 0.00 0.00 32 1023.8
20260502102005 72 48 2.6 8.7 0.00 0.00 0.00 33 1023.8
20260502101908 72 89 3.5 8.7 0.00 0.00 0.00 35 1023.8
20260502101749 72 97 4.3 8.7 0.00 0.00 0.00 34 1023.9
20260502101645 72 70 5.2 8.7 0.00 0.00 0.00 34 1023.9
20260502101451 72 76 2.6 7.0 0.00 0.00 0.00 33 1023.9
20260502101153 72 229 0.9 7.0 0.00 0.00 0.00 33 1024.0
20260502101054 72 239 0.9 7.0 0.00 0.00 0.00 35 1024.0
20260502101020 72 333 0.9 7.0 0.00 0.00 0.00 34 1023.8
20260502100932 72 328 2.6 7.0 0.00 0.00 0.00 34 1024.0
20260502100835 72 76 2.6 8.7 0.00 0.00 0.00 36 1024.1
20260502100736 72 90 3.5 8.7 0.00 0.00 0.00 34 1024.1
20260502100630 72 95 5.2 8.7 0.00 0.00 0.00 35 1024.1
20260502100532 72 86 3.5 8.7 0.00 0.00 0.00 36 1024.1
20260502100414 72 67 2.6 8.7 0.00 0.00 0.00 36 1024.1
20260502100307 72 95 2.6 8.7 0.00 0.00 0.00 37 1024.1
20260502100211 72 85 3.5 8.7 0.00 0.00 0.00 35 1024.1
20260502091534 71 76 2.6 6.1 0.00 0.00 0.00 40 1024.8
20260502091438 71 70 2.6 6.1 0.00 0.00 0.00 43 1024.8
20260502091346 71 70 1.7 6.1 0.00 0.00 0.00 41 1024.8
20260502091237 71 53 2.6 6.1 0.00 0.00 0.00 41 1024.8
20260502091118 71 30 3.5 6.1 0.00 0.00 0.00 40 1024.7
20260502091020 71 47 3.5 6.1 0.00 0.00 0.00 41 1024.8
20260502090923 71 83 2.6 5.2 0.00 0.00 0.00 40 1024.8
20260502090817 71 78 1.7 5.2 0.00 0.00 0.00 41 1024.9
20260502090659 71 36 0.9 5.2 0.00 0.00 0.00 41 1024.8
20260502090607 71 36 1.7 5.2 0.00 0.00 0.00 41 1024.8
20260502090529 70 35 1.7 5.2 0.00 0.00 0.00 41 1024.7
20260502090458 71 35 3.5 5.2 0.00 0.00 0.00 41 1024.8
20260502090359 71 59 1.7 5.2 0.00 0.00 0.00 41 1024.9
20260502090218 71 41 2.6 5.2 0.00 0.00 0.00 41 1024.9
20260502090121 70 96 2.6 5.2 0.00 0.00 0.00 41 1024.9
20260502071516 61 16 0.0 0.9 0.00 0.00 0.00 58 1025.5
20260502071419 61 16 0.0 1.7 0.00 0.00 0.00 58 1025.6
20260502071313 61 16 0.0 1.7 0.00 0.00 0.00 59 1025.6
20260502071215 61 16 0.0 1.7 0.00 0.00 0.00 59 1025.6
20260502071124 61 16 0.0 1.7 0.00 0.00 0.00 59 1025.5
20260502071026 61 16 0.0 1.7 0.00 0.00 0.00 60 1025.6
20260502071003 60 16 0.0 1.7 0.00 0.00 0.00 61 1025.5
20260502070920 61 16 0.0 2.6 0.00 0.00 0.00 62 1025.5
20260502070824 60 16 0.0 2.6 0.00 0.00 0.00 61 1025.5
20260502070727 60 16 0.0 2.6 0.00 0.00 0.00 61 1025.5
20260502070659 60 16 0.0 2.6 0.00 0.00 0.00 61 1025.5
20260502070621 60 16 0.9 2.6 0.00 0.00 0.00 62 1025.5
20260502070500 60 16 0.9 2.6 0.00 0.00 0.00 63 1025.5
20260502070408 60 355 0.9 2.6 0.00 0.00 0.00 63 1025.5
20260502070310 59 298 0.9 2.6 0.00 0.00 0.00 63 1025.5
20260502070143 59 295 0.9 2.6 0.00 0.00 0.00 64 1025.6
20260502070044 59 220 0.9 1.7 0.00 0.00 0.00 66 1025.5
20260502065945 58 220 0.0 1.7 0.00 0.00 0.00 65 1025.6
20260502065817 58 220 0.0 1.7 0.00 0.00 0.00 65 1025.6
20260502065725 58 220 0.0 1.7 0.00 0.00 0.00 66 1025.6
20260502065628 58 220 0.0 1.7 0.00 0.00 0.00 67 1025.6
20260502065551 57 220 0.0 1.7 0.00 0.00 0.00 67 1025.6
20260502065519 58 220 0.0 1.7 0.00 0.00 0.00 67 1025.6
20260502065422 57 220 0.9 1.7 0.00 0.00 0.00 68 1025.6
20260502065325 57 220 0.9 2.6 0.00 0.00 0.00 68 1025.6
20260502065226 57 220 0.9 2.6 0.00 0.00 0.00 69 1025.6
20260502065159 56 220 0.9 2.6 0.00 0.00 0.00 67 1025.6
20260502065120 57 220 0.9 2.6 0.00 0.00 0.00 68 1025.6
20260502065023 56 220 0.0 2.6 0.00 0.00 0.00 68 1025.6
20260502064738 56 220 0.9 2.6 0.00 0.00 0.00 68 1025.6
20260502064631 56 220 0.9 2.6 0.00 0.00 0.00 68 1025.6
20260502064531 56 220 1.7 2.6 0.00 0.00 0.00 69 1025.6
20260502064434 56 220 1.7 2.6 0.00 0.00 0.00 68 1025.6
20260502064328 55 220 0.9 2.6 0.00 0.00 0.00 69 1025.6
20260502064234 55 97 0.9 1.7 0.00 0.00 0.00 69 1025.7
20260502064116 55 97 0.9 1.7 0.00 0.00 0.00 70 1025.6
20260502064017 55 97 0.0 1.7 0.00 0.00 0.00 71 1025.6
20260502063909 55 97 0.0 2.6 0.00 0.00 0.00 71 1025.6
20260502063812 55 97 0.0 2.6 0.00 0.00 0.00 71 1025.7
20260502063714 54 97 0.0 2.6 0.00 0.00 0.00 71 1025.6
20260502063620 54 97 0.0 2.6 0.00 0.00 0.00 72 1025.7
20260502063556 53 97 0.0 2.6 0.00 0.00 0.00 72 1025.7
20260502063512 54 97 0.0 2.6 0.00 0.00 0.00 72 1025.7
20260502063354 54 97 0.9 2.6 0.00 0.00 0.00 73 1025.7
20260502063256 54 97 0.9 2.6 0.00 0.00 0.00 73 1025.7
20260502063148 53 97 0.9 2.6 0.00 0.00 0.00 73 1025.7
20260502063048 53 97 0.0 0.0 0.00 0.00 0.00 74 1025.7
20260502062951 53 97 0.0 0.0 0.00 0.00 0.00 74 1025.7
20260502062830 53 97 0.0 0.9 0.00 0.00 0.00 74 1025.7
20260502062731 53 97 0.0 1.7 0.00 0.00 0.00 74 1025.7
20260502062614 53 97 0.0 1.7 0.00 0.00 0.00 74 1025.7
20260502062553 52 97 0.0 1.7 0.00 0.00 0.00 74 1025.7
20260502062505 52 97 0.0 1.7 0.00 0.00 0.00 74 1025.7
20260502062408 52 97 0.0 1.7 0.00 0.00 0.00 75 1025.7
20260502062310 52 97 0.0 1.7 0.00 0.00 0.00 75 1025.7
20260502062207 52 97 0.0 1.7 0.00 0.00 0.00 75 1025.7
20260502062026 52 97 0.9 2.6 0.00 0.00 0.00 75 1025.8
20260502061929 52 97 0.9 2.6 0.00 0.00 0.00 75 1025.7
20260502061813 51 97 0.9 2.6 0.00 0.00 0.00 76 1025.7
20260502061705 51 97 0.0 2.6 0.00 0.00 0.00 76 1025.8
20260502061610 51 97 0.0 2.6 0.00 0.00 0.00 75 1025.8
20260502061407 51 97 1.7 2.6 0.00 0.00 0.00 76 1025.8
20260502061309 51 97 1.7 2.6 0.00 0.00 0.00 77 1025.8
20260502061148 51 97 0.9 2.6 0.00 0.00 0.00 77 1025.7
20260502061049 50 97 1.7 2.6 0.00 0.00 0.00 77 1025.8
20260502061026 50 97 0.9 2.6 0.00 0.00 0.00 77 1025.8
20260502060921 50 97 1.7 2.6 0.00 0.00 0.00 77 1025.8
20260502060825 50 97 0.9 2.6 0.00 0.00 0.00 78 1025.8
20260502060731 50 97 0.9 2.6 0.00 0.00 0.00 78 1025.8
20260502060631 49 97 0.0 2.6 0.00 0.00 0.00 78 1025.8
20260502060538 50 97 0.9 2.6 0.00 0.00 0.00 78 1025.8
20260502060441 50 97 1.7 2.6 0.00 0.00 0.00 79 1025.9
20260502060343 50 97 0.9 2.6 0.00 0.00 0.00 80 1025.8
20260502060224 49 97 0.9 2.6 0.00 0.00 0.00 80 1025.7
20260502060127 49 97 0.9 1.7 0.00 0.00 0.00 81 1025.8
20260502060111 49 97 0.9 1.7 0.00 0.00 0.00 81 1025.8
20260502060023 49 97 0.9 1.7 0.00 0.00 0.00 81 1025.8
20260502055758 49 97 0.9 1.7 0.00 0.00 0.00 82 1025.7
20260502055651 49 97 0.9 1.7 0.00 0.00 0.00 82 1025.8
20260502055531 48 97 0.0 0.0 0.00 0.00 0.00 82 1025.8
20260502055413 48 97 0.0 0.0 0.00 0.00 0.00 82 1025.8
20260502055307 48 97 0.0 0.0 0.00 0.00 0.00 82 1025.8
20260502055212 48 97 0.0 0.0 0.00 0.00 0.00 83 1025.8
20260502055115 48 97 0.0 0.0 0.00 0.00 0.00 83 1025.8
20260502055017 48 97 0.0 0.0 0.00 0.00 0.00 83 1025.8
20260502054830 47 97 0.0 0.0 0.00 0.00 0.00 83 1025.8
20260502054731 47 97 0.0 0.0 0.00 0.00 0.00 84 1025.7
20260502054603 47 97 0.0 0.0 0.00 0.00 0.00 84 1025.7
20260502054510 47 97 0.0 0.0 0.00 0.00 0.00 84 1025.7
20260502054412 47 97 0.0 0.0 0.00 0.00 0.00 85 1025.7
20260502054244 47 97 0.0 0.0 0.00 0.00 0.00 86 1025.7
20260502054146 46 97 0.0 0.0 0.00 0.00 0.00 86 1025.7
20260502054044 46 97 0.0 0.0 0.00 0.00 0.00 87 1025.8
20260502054007 46 97 0.0 0.0 0.00 0.00 0.00 87 1025.8
20260502053937 46 97 0.0 0.0 0.00 0.00 0.00 87 1025.8
20260502053840 46 97 0.0 0.0 0.00 0.00 0.00 87 1025.8
20260502053747 46 97 0.0 0.0 0.00 0.00 0.00 87 1025.7
20260502053650 46 97 0.0 0.0 0.00 0.00 0.00 87 1025.7
20260502053553 45 97 0.0 0.0 0.00 0.00 0.00 87 1025.8
20260502053521 45 97 0.0 0.0 0.00 0.00 0.00 87 1025.8
20260502053342 45 97 0.0 0.0 0.00 0.00 0.00 87 1025.8
20260502053244 45 97 0.0 0.0 0.00 0.00 0.00 88 1025.8
20260502053147 45 97 0.0 0.0 0.00 0.00 0.00 88 1025.8
20260502053102 44 97 0.0 0.0 0.00 0.00 0.00 88 1025.9
20260502053021 45 97 0.0 0.0 0.00 0.00 0.00 88 1025.8
20260502052922 45 97 0.0 0.0 0.00 0.00 0.00 88 1025.8
20260502052826 45 97 0.0 0.0 0.00 0.00 0.00 88 1025.8
20260502052720 44 97 0.0 0.0 0.00 0.00 0.00 88 1025.8
20260502052621 44 97 0.0 0.0 0.00 0.00 0.00 89 1025.8
20260502052325 44 97 0.0 0.0 0.00 0.00 0.00 89 1025.8
20260502052209 44 97 0.0 0.9 0.00 0.00 0.00 89 1025.8
20260502052112 44 97 0.0 0.9 0.00 0.00 0.00 89 1025.8
20260502052014 44 97 0.0 0.9 0.00 0.00 0.00 89 1025.8
20260502051908 43 97 0.0 0.9 0.00 0.00 0.00 88 1025.8
20260502051812 43 97 0.0 0.9 0.00 0.00 0.00 89 1025.8
20260502051715 43 97 0.0 1.7 0.00 0.00 0.00 89 1025.8
20260502051645 43 97 0.0 1.7 0.00 0.00 0.00 89 1025.8
20260502051607 43 97 0.0 1.7 0.00 0.00 0.00 89 1025.8
20260502051451 43 97 0.9 1.7 0.00 0.00 0.00 89 1025.8
20260502051354 43 97 0.9 1.7 0.00 0.00 0.00 89 1025.8
20260502051257 43 97 0.0 1.7 0.00 0.00 0.00 89 1025.8
20260502051150 43 97 0.0 2.6 0.00 0.00 0.00 89 1025.8
20260502051051 43 97 0.9 2.6 0.00 0.00 0.00 89 1025.8
20260502050931 43 97 0.9 2.6 0.00 0.00 0.00 89 1025.7
20260502050838 43 97 0.9 2.6 0.00 0.00 0.00 89 1025.8
20260502050711 43 97 0.9 2.6 0.00 0.00 0.00 89 1025.7
20260502050615 42 97 1.7 2.6 0.00 0.00 0.00 89 1025.7
20260502050516 42 97 1.7 2.6 0.00 0.00 0.00 89 1025.7
20260502050350 42 97 1.7 2.6 0.00 0.00 0.00 90 1025.7
20260502050252 42 97 1.7 2.6 0.00 0.00 0.00 90 1025.7
20260502050152 42 97 1.7 1.7 0.00 0.00 0.00 91 1025.8
20260502050117 42 97 0.9 1.7 0.00 0.00 0.00 91 1025.9
20260502050045 42 97 1.7 1.7 0.00 0.00 0.00 91 1025.7
20260502045929 42 97 0.9 1.7 0.00 0.00 0.00 91 1025.7
20260502045824 42 97 0.9 1.7 0.00 0.00 0.00 91 1025.7
20260502045728 42 97 0.9 1.7 0.00 0.00 0.00 91 1025.7
20260502045611 42 97 0.9 1.7 0.00 0.00 0.00 91 1025.7
20260502045510 41 97 0.0 0.0 0.00 0.00 0.00 91 1025.7
20260502045409 41 97 0.0 0.0 0.00 0.00 0.00 91 1025.7
20260502045311 41 97 0.0 0.0 0.00 0.00 0.00 91 1025.7
20260502045212 41 97 0.0 0.0 0.00 0.00 0.00 91 1025.7
20260502045140 40 97 0.0 0.0 0.00 0.00 0.00 90 1025.8
20260502045107 41 97 0.0 0.0 0.00 0.00 0.00 90 1025.7
20260502044839 41 97 0.0 0.0 0.00 0.00 0.00 90 1025.7
20260502044744 41 97 0.0 0.0 0.00 0.00 0.00 90 1025.7
20260502044639 41 97 0.0 0.0 0.00 0.00 0.00 90 1025.7
20260502044518 41 97 0.0 0.0 0.00 0.00 0.00 90 1025.7
20260502044422 41 97 0.0 0.0 0.00 0.00 0.00 90 1025.7
20260502044255 40 97 0.0 0.0 0.00 0.00 0.00 90 1025.7
20260502044152 40 97 0.0 0.0 0.00 0.00 0.00 90 1025.7
20260502044052 40 97 0.0 0.0 0.00 0.00 0.00 90 1025.7
20260502044014 40 97 0.0 0.0 0.00 0.00 0.00 90 1025.8
20260502043930 40 97 0.0 0.0 0.00 0.00 0.00 90 1025.6
20260502043834 40 97 0.0 0.0 0.00 0.00 0.00 90 1025.6
20260502043737 40 97 0.0 0.0 0.00 0.00 0.00 90 1025.6
20260502043630 40 97 0.0 0.0 0.00 0.00 0.00 90 1025.6
20260502043531 40 97 0.0 0.0 0.00 0.00 0.00 90 1025.6
20260502043434 40 97 0.0 0.0 0.00 0.00 0.00 90 1025.6
20260502043319 40 97 0.0 0.0 0.00 0.00 0.00 89 1025.6
20260502043210 40 97 0.0 0.0 0.00 0.00 0.00 89 1025.6
20260502043112 40 97 0.0 0.0 0.00 0.00 0.00 89 1025.6
20260502043013 40 97 0.0 0.0 0.00 0.00 0.00 90 1025.6
20260502042906 40 97 0.0 0.0 0.00 0.00 0.00 89 1025.6
20260502042809 40 97 0.0 0.0 0.00 0.00 0.00 89 1025.6
20260502042652 40 97 0.0 0.0 0.00 0.00 0.00 89 1025.6
20260502042559 40 97 0.0 0.0 0.00 0.00 0.00 89 1025.6
20260502042536 40 97 0.0 0.0 0.00 0.00 0.00 89 1025.7
20260502042450 40 97 0.0 0.0 0.00 0.00 0.00 89 1025.6
20260502042353 40 97 0.0 0.0 0.00 0.00 0.00 89 1025.6
20260502042257 40 97 0.0 0.0 0.00 0.00 0.00 89 1025.6
20260502042150 40 97 0.0 0.0 0.00 0.00 0.00 89 1025.7
20260502042050 40 97 0.0 0.0 0.00 0.00 0.00 89 1025.6
20260502041936 40 97 0.0 0.0 0.00 0.00 0.00 90 1025.6
20260502041830 40 97 0.0 0.0 0.00 0.00 0.00 90 1025.6
20260502041734 40 97 0.0 0.0 0.00 0.00 0.00 90 1025.6
20260502041515 40 97 0.0 0.0 0.00 0.00 0.00 90 1025.7
20260502041435 40 97 0.0 0.0 0.00 0.00 0.00 91 1025.6
20260502041317 40 97 0.0 0.0 0.00 0.00 0.00 91 1025.6
20260502041158 40 97 0.0 0.0 0.00 0.00 0.00 91 1025.6
20260502041040 40 97 0.0 0.0 0.00 0.00 0.00 91 1025.6
20260502041014 40 97 0.0 0.0 0.00 0.00 0.00 91 1025.7
20260502040934 40 97 0.0 0.0 0.00 0.00 0.00 91 1025.6
20260502040838 40 97 0.0 0.0 0.00 0.00 0.00 91 1025.6
20260502040740 40 97 0.0 0.0 0.00 0.00 0.00 91 1025.6
20260502040634 40 97 0.0 0.0 0.00 0.00 0.00 91 1025.6
20260502040536 40 97 0.0 0.0 0.00 0.00 0.00 91 1025.5
20260502040439 40 97 0.0 0.0 0.00 0.00 0.00 91 1025.5
20260502040346 40 97 0.0 0.0 0.00 0.00 0.00 91 1025.6
20260502040238 40 97 0.0 0.0 0.00 0.00 0.00 91 1025.5
20260502040141 40 97 0.0 1.7 0.00 0.00 0.00 91 1025.5
20260502040043 40 97 0.0 2.6 0.00 0.00 0.00 91 1025.5
20260502040019 39 97 0.0 2.6 0.00 0.00 0.00 91 1025.6
20260502035937 40 97 0.0 2.6 0.00 0.00 0.00 91 1025.6
20260502035818 40 97 0.0 2.6 0.00 0.00 0.00 91 1025.5
20260502035704 40 97 0.0 2.6 0.00 0.00 0.00 91 1025.5
20260502035608 40 97 0.0 2.6 0.00 0.00 0.00 91 1025.5
20260502035540 39 97 0.0 2.6 0.00 0.00 0.00 91 1025.6
20260502035459 39 97 0.9 2.6 0.00 0.00 0.00 91 1025.5
20260502035342 39 97 1.7 2.6 0.00 0.00 0.00 90 1025.5
20260502035245 39 97 0.9 2.6 0.00 0.00 0.00 90 1025.5
20260502035139 39 97 0.0 0.0 0.00 0.00 0.00 89 1025.6
20260502035039 39 97 0.0 0.0 0.00 0.00 0.00 89 1025.5
20260502034947 39 97 0.0 0.0 0.00 0.00 0.00 89 1025.6
20260502034850 39 97 0.0 0.0 0.00 0.00 0.00 89 1025.5
20260502034744 39 97 0.0 0.0 0.00 0.00 0.00 89 1025.5
20260502034648 39 97 0.0 0.0 0.00 0.00 0.00 89 1025.5
20260502034550 39 97 0.0 0.0 0.00 0.00 0.00 89 1025.5
20260502034525 39 97 0.0 0.0 0.00 0.00 0.00 89 1025.6
20260502034444 39 97 0.0 0.0 0.00 0.00 0.00 89 1025.5
20260502034331 39 97 0.0 0.0 0.00 0.00 0.00 89 1025.6
20260502034224 39 97 0.0 0.0 0.00 0.00 0.00 89 1025.5
20260502034125 39 97 0.0 0.0 0.00 0.00 0.00 89 1025.5
20260502034005 39 97 0.0 0.0 0.00 0.00 0.00 88 1025.5
20260502033858 39 97 0.0 0.0 0.00 0.00 0.00 88 1025.5
20260502033802 39 97 0.0 0.0 0.00 0.00 0.00 88 1025.4
20260502033647 39 97 0.0 0.0 0.00 0.00 0.00 88 1025.5
20260502033548 39 97 0.0 0.0 0.00 0.00 0.00 88 1025.4
20260502033518 39 97 0.0 0.0 0.00 0.00 0.00 88 1025.5
20260502033443 39 97 0.0 0.0 0.00 0.00 0.00 87 1025.4
20260502033345 39 97 0.0 0.0 0.00 0.00 0.00 87 1025.4
20260502033248 39 97 0.0 0.0 0.00 0.00 0.00 87 1025.4
20260502033143 39 97 0.0 0.0 0.00 0.00 0.00 87 1025.4
20260502033027 39 97 0.0 0.0 0.00 0.00 0.00 87 1025.5
20260502032910 39 97 0.0 0.0 0.00 0.00 0.00 87 1025.5
20260502032804 39 97 0.0 0.0 0.00 0.00 0.00 87 1025.5
20260502032646 39 97 0.0 0.0 0.00 0.00 0.00 86 1025.5
20260502032409 39 97 0.0 0.0 0.00 0.00 0.00 86 1025.5
20260502032310 39 97 0.0 0.0 0.00 0.00 0.00 86 1025.5
20260502032216 39 97 0.0 0.0 0.00 0.00 0.00 86 1025.5
20260502032054 39 97 0.0 0.0 0.00 0.00 0.00 86 1025.5
20260502032031 39 97 0.0 0.0 0.00 0.00 0.00 86 1025.6
20260502031949 39 97 0.0 0.0 0.00 0.00 0.00 86 1025.5
20260502031851 39 97 0.0 0.0 0.00 0.00 0.00 86 1025.5
20260502031755 39 97 0.0 0.0 0.00 0.00 0.00 86 1025.5
20260502031650 39 97 0.0 0.0 0.00 0.00 0.00 86 1025.5
20260502031550 39 97 0.0 0.0 0.00 0.00 0.00 86 1025.5
20260502031457 39 97 0.0 0.0 0.00 0.00 0.00 86 1025.5
20260502031352 40 97 0.0 0.0 0.00 0.00 0.00 86 1025.5
20260502031255 40 97 0.0 0.0 0.00 0.00 0.00 85 1025.5
20260502031138 40 97 0.0 0.0 0.00 0.00 0.00 85 1025.5
20260502031018 40 97 0.0 0.0 0.00 0.00 0.00 86 1025.5
20260502030620 40 97 0.0 0.0 0.00 0.00 0.00 86 1025.5
20260502030554 39 97 0.0 0.0 0.00 0.00 0.00 86 1025.6
20260502030451 40 97 0.0 0.0 0.00 0.00 0.00 86 1025.5
20260502030331 40 97 0.0 0.0 0.00 0.00 0.00 86 1025.5
20260502030230 40 97 0.0 0.0 0.00 0.00 0.00 86 1025.6
20260502030138 39 97 0.0 0.0 0.00 0.00 0.00 86 1025.7
20260502030100 40 97 0.0 0.0 0.00 0.00 0.00 86 1025.6
20260502030004 40 97 0.0 0.0 0.00 0.00 0.00 86 1025.6
20260502025907 40 97 0.0 0.0 0.00 0.00 0.00 86 1025.6
20260502025805 40 97 0.0 0.0 0.00 0.00 0.00 86 1025.6
20260502025709 40 97 0.0 0.0 0.00 0.00 0.00 86 1025.6
20260502025609 40 97 0.0 0.0 0.00 0.00 0.00 86 1025.6
20260502025509 40 97 0.0 0.0 0.00 0.00 0.00 86 1025.6
20260502025404 40 97 0.0 0.0 0.00 0.00 0.00 86 1025.6
20260502025308 40 97 0.0 0.0 0.00 0.00 0.00 86 1025.6
20260502025214 40 97 0.0 0.0 0.00 0.00 0.00 86 1025.6
20260502025056 40 97 0.0 0.0 0.00 0.00 0.00 86 1025.6
20260502025032 40 97 0.0 0.0 0.00 0.00 0.00 86 1025.7
20260502024928 40 97 0.0 0.0 0.00 0.00 0.00 86 1025.6
20260502024830 40 97 0.0 0.0 0.00 0.00 0.00 86 1025.6
20260502024723 40 97 0.0 0.0 0.00 0.00 0.00 86 1025.6
20260502024607 40 97 0.0 0.0 0.00 0.00 0.00 86 1025.6
20260502024512 40 97 0.0 0.0 0.00 0.00 0.00 85 1025.6
20260502024344 40 97 0.0 0.0 0.00 0.00 0.00 85 1025.6
20260502024226 40 97 0.0 0.0 0.00 0.00 0.00 85 1025.6
20260502024129 40 97 0.0 0.0 0.00 0.00 0.00 85 1025.6
20260502024030 40 97 0.0 0.0 0.00 0.00 0.00 85 1025.6
20260502023902 40 97 0.0 0.0 0.00 0.00 0.00 85 1025.6
20260502023805 40 97 0.0 0.0 0.00 0.00 0.00 85 1025.6
20260502023651 40 97 0.0 0.0 0.00 0.00 0.00 84 1025.6
20260502023620 40 97 0.0 0.0 0.00 0.00 0.00 84 1025.7
20260502023541 40 97 0.0 0.0 0.00 0.00 0.00 84 1025.5
20260502023443 41 97 0.0 0.0 0.00 0.00 0.00 84 1025.5
20260502023324 41 97 0.0 0.0 0.00 0.00 0.00 84 1025.6
20260502023153 41 97 0.0 0.0 0.00 0.00 0.00 84 1025.6
20260502023054 41 97 0.0 0.0 0.00 0.00 0.00 83 1025.6
20260502023000 41 97 0.0 0.0 0.00 0.00 0.00 84 1025.6
20260502022904 41 97 0.0 0.0 0.00 0.00 0.00 84 1025.6
20260502022735 41 97 0.0 0.0 0.00 0.00 0.00 84 1025.6
20260502022640 41 97 0.0 0.0 0.00 0.00 0.00 84 1025.6
20260502022541 41 97 0.0 0.0 0.00 0.00 0.00 84 1025.6
20260502022517 40 97 0.0 0.0 0.00 0.00 0.00 84 1025.7
20260502022436 41 97 0.0 0.0 0.00 0.00 0.00 84 1025.6
20260502022338 41 97 0.0 0.0 0.00 0.00 0.00 84 1025.6
20260502022244 41 97 0.0 0.0 0.00 0.00 0.00 84 1025.6
20260502022140 41 97 0.0 0.0 0.00 0.00 0.00 84 1025.6
20260502022040 41 97 0.0 0.0 0.00 0.00 0.00 84 1025.6
20260502021942 41 97 0.0 0.0 0.00 0.00 0.00 84 1025.6
20260502021846 41 97 0.0 0.0 0.00 0.00 0.00 84 1025.6
20260502021657 41 97 0.0 0.0 0.00 0.00 0.00 84 1025.6
20260502021601 41 97 0.0 0.0 0.00 0.00 0.00 84 1025.6
20260502021504 41 97 0.0 0.0 0.00 0.00 0.00 84 1025.6
20260502021337 41 97 0.0 0.0 0.00 0.00 0.00 84 1025.6
20260502021238 41 97 0.0 0.0 0.00 0.00 0.00 84 1025.6
20260502021122 41 97 0.0 0.0 0.00 0.00 0.00 84 1025.6
20260502021048 41 97 0.0 0.0 0.00 0.00 0.00 84 1025.8
20260502021012 41 97 0.0 0.0 0.00 0.00 0.00 84 1025.6
20260502020916 42 97 0.0 0.0 0.00 0.00 0.00 84 1025.6
20260502020823 42 97 0.0 0.0 0.00 0.00 0.00 84 1025.6
20260502020727 42 97 0.0 0.0 0.00 0.00 0.00 84 1025.6
20260502020618 42 97 0.0 0.0 0.00 0.00 0.00 84 1025.7
20260502020501 42 97 0.0 0.0 0.00 0.00 0.00 84 1025.6
20260502020404 42 97 0.0 0.0 0.00 0.00 0.00 84 1025.7
20260502020258 42 97 0.0 0.0 0.00 0.00 0.00 84 1025.6
20260502020144 42 97 0.0 0.0 0.00 0.00 0.00 84 1025.6
20260502020043 42 97 0.0 0.0 0.00 0.00 0.00 84 1025.6
20260502020010 41 97 0.0 0.0 0.00 0.00 0.00 84 1025.8
20260502015936 42 97 0.0 0.0 0.00 0.00 0.00 84 1025.7
20260502015837 42 97 0.0 0.0 0.00 0.00 0.00 84 1025.7
20260502015740 42 97 0.0 0.0 0.00 0.00 0.00 84 1025.7
20260502015644 42 97 0.0 0.0 0.00 0.00 0.00 85 1025.7
20260502015621 41 97 0.0 0.0 0.00 0.00 0.00 85 1025.8
20260502015537 42 97 0.0 0.0 0.00 0.00 0.00 84 1025.7
20260502015444 42 97 0.0 0.0 0.00 0.00 0.00 84 1025.7
20260502015326 42 97 0.0 0.0 0.00 0.00 0.00 84 1025.7
20260502015220 42 97 0.0 0.0 0.00 0.00 0.00 84 1025.7
20260502015120 42 97 0.0 0.0 0.00 0.00 0.00 84 1025.7
20260502015002 42 97 0.0 0.0 0.00 0.00 0.00 84 1025.7
20260502014823 42 97 0.0 0.0 0.00 0.00 0.00 84 1025.8
20260502014720 42 97 0.0 0.0 0.00 0.00 0.00 84 1025.8
20260502014620 42 97 0.0 0.0 0.00 0.00 0.00 85 1025.7
20260502014503 42 97 0.0 0.0 0.00 0.00 0.00 85 1025.7
20260502014356 42 97 0.0 0.0 0.00 0.00 0.00 85 1025.7
20260502014259 42 97 0.0 0.0 0.00 0.00 0.00 85 1025.7
20260502014200 42 97 0.0 0.0 0.00 0.00 0.00 85 1025.7
20260502014101 42 97 0.0 0.0 0.00 0.00 0.00 85 1025.8
20260502014017 41 97 0.0 0.0 0.00 0.00 0.00 85 1025.9
20260502013914 42 97 0.0 0.0 0.00 0.00 0.00 85 1025.7
20260502013817 42 97 0.0 0.0 0.00 0.00 0.00 86 1025.7
20260502013720 42 97 0.0 0.0 0.00 0.00 0.00 85 1025.7
20260502013625 41 97 0.0 0.0 0.00 0.00 0.00 85 1025.8
20260502013529 42 97 0.0 0.0 0.00 0.00 0.00 85 1025.7
20260502013431 42 97 0.0 0.0 0.00 0.00 0.00 85 1025.7
20260502013335 42 97 0.0 0.0 0.00 0.00 0.00 85 1025.7
20260502013240 42 97 0.0 0.0 0.00 0.00 0.00 84 1025.7
20260502013134 42 97 0.0 0.0 0.00 0.00 0.00 84 1025.7
20260502013036 42 97 0.0 0.0 0.00 0.00 0.00 84 1025.7
20260502012940 42 97 0.0 0.0 0.00 0.00 0.00 84 1025.7
20260502012834 42 97 0.0 0.0 0.00 0.00 0.00 84 1025.7
20260502012738 42 97 0.0 0.0 0.00 0.00 0.00 84 1025.7
20260502012514 42 97 0.0 0.0 0.00 0.00 0.00 84 1025.8
20260502012406 42 97 0.0 0.0 0.00 0.00 0.00 84 1025.8
20260502012227 42 97 0.0 0.0 0.00 0.00 0.00 84 1025.8
20260502012122 42 97 0.0 0.0 0.00 0.00 0.00 84 1025.8
20260502012024 42 97 0.0 0.0 0.00 0.00 0.00 83 1025.7
20260502011906 42 97 0.0 0.0 0.00 0.00 0.00 83 1025.7
20260502011805 42 97 0.0 0.0 0.00 0.00 0.00 83 1025.8
20260502011708 42 97 0.0 0.0 0.00 0.00 0.00 83 1025.8
20260502011611 42 97 0.0 0.0 0.00 0.00 0.00 82 1025.8
20260502011512 42 97 0.0 0.0 0.00 0.00 0.00 82 1025.8
20260502011405 42 97 0.0 0.0 0.00 0.00 0.00 83 1025.8
20260502011308 42 97 0.0 0.0 0.00 0.00 0.00 83 1025.8
20260502011206 42 97 0.0 0.0 0.00 0.00 0.00 83 1025.8
20260502011113 42 97 0.0 0.0 0.00 0.00 0.00 83 1025.8
20260502011045 42 97 0.0 0.0 0.00 0.00 0.00 83 1025.9
20260502011004 42 97 0.0 0.0 0.00 0.00 0.00 83 1025.8
20260502010908 42 97 0.0 0.0 0.00 0.00 0.00 83 1025.8
20260502010811 42 97 0.0 0.0 0.00 0.00 0.00 83 1025.8
20260502010643 42 97 0.0 0.0 0.00 0.00 0.00 83 1025.8
20260502010542 42 97 0.0 0.0 0.00 0.00 0.00 83 1025.8
20260502010446 42 97 0.0 0.0 0.00 0.00 0.00 83 1025.9
20260502010354 42 97 0.0 0.0 0.00 0.00 0.00 82 1025.8
20260502010248 42 97 0.0 0.0 0.00 0.00 0.00 82 1025.8
20260502010149 42 97 0.0 0.0 0.00 0.00 0.00 82 1025.9
20260502010051 42 97 0.0 0.0 0.00 0.00 0.00 82 1025.9
20260502005956 42 97 0.0 0.0 0.00 0.00 0.00 82 1025.9
20260502005848 42 97 0.0 0.0 0.00 0.00 0.00 82 1025.9
20260502005756 42 97 0.0 0.0 0.00 0.00 0.00 82 1026.0
20260502005659 43 97 0.0 0.0 0.00 0.00 0.00 82 1025.9
20260502005623 42 97 0.0 0.0 0.00 0.00 0.00 83 1026.1
20260502005551 43 97 0.0 0.0 0.00 0.00 0.00 83 1025.9
20260502005454 43 97 0.0 0.0 0.00 0.00 0.00 83 1025.9
20260502005358 43 97 0.0 0.0 0.00 0.00 0.00 83 1026.0
20260502005305 43 97 0.0 0.0 0.00 0.00 0.00 83 1025.9
20260502005152 43 97 0.0 0.0 0.00 0.00 0.00 83 1026.0
20260502005036 43 97 0.0 0.0 0.00 0.00 0.00 83 1025.9
20260502004938 43 97 0.0 0.0 0.00 0.00 0.00 83 1025.9
20260502004833 43 97 0.0 0.0 0.00 0.00 0.00 83 1025.9
20260502004734 43 97 0.0 0.0 0.00 0.00 0.00 83 1026.0
20260502004638 43 97 0.0 0.0 0.00 0.00 0.00 83 1026.0
20260502004540 43 97 0.0 0.0 0.00 0.00 0.00 83 1026.0
20260502004518 42 97 0.0 0.0 0.00 0.00 0.00 83 1026.1
20260502004438 43 97 0.0 0.0 0.00 0.00 0.00 83 1026.0
20260502004341 43 97 0.0 0.0 0.00 0.00 0.00 83 1026.0
20260502004223 43 97 0.0 0.0 0.00 0.00 0.00 82 1026.0
20260502004153 42 97 0.0 0.0 0.00 0.00 0.00 82 1026.1
20260502004119 43 97 0.0 0.0 0.00 0.00 0.00 82 1026.0
20260502004020 43 97 0.0 0.0 0.00 0.00 0.00 82 1026.0
20260502003923 43 97 0.0 0.0 0.00 0.00 0.00 82 1025.9
20260502003815 43 97 0.0 0.0 0.00 0.00 0.00 82 1026.0
20260502003722 43 97 0.0 0.0 0.00 0.00 0.00 81 1026.0
20260502003540 43 97 0.0 0.0 0.00 0.00 0.00 81 1026.0
20260502003305 43 97 0.0 0.0 0.00 0.00 0.00 80 1026.0
20260502003206 43 97 0.0 0.0 0.00 0.00 0.00 80 1026.0
20260502003108 43 97 0.0 0.0 0.00 0.00 0.00 80 1025.9
20260502003037 42 97 0.0 0.0 0.00 0.00 0.00 80 1026.2
20260502003001 43 97 0.0 0.0 0.00 0.00 0.00 80 1026.0
20260502002908 43 97 0.0 0.0 0.00 0.00 0.00 80 1026.0
20260502002811 43 97 0.0 0.0 0.00 0.00 0.00 80 1026.0
20260502002706 43 97 0.0 0.0 0.00 0.00 0.00 80 1026.0
20260502002546 43 97 0.0 0.0 0.00 0.00 0.00 80 1026.0
20260502002449 43 97 0.0 0.0 0.00 0.00 0.00 80 1026.0
20260502002352 43 97 0.0 0.0 0.00 0.00 0.00 80 1026.0
20260502002251 43 97 0.0 0.0 0.00 0.00 0.00 81 1026.0
20260502002134 43 97 0.0 0.0 0.00 0.00 0.00 81 1026.0
20260502002036 43 97 0.0 0.0 0.00 0.00 0.00 81 1026.0
20260502002003 43 97 0.0 0.0 0.00 0.00 0.00 81 1026.2
20260502001930 43 97 0.0 0.0 0.00 0.00 0.00 81 1026.0
20260502001832 43 97 0.0 0.0 0.00 0.00 0.00 81 1026.0
20260502001653 43 97 0.0 0.0 0.00 0.00 0.00 81 1026.0
20260502001532 43 97 0.0 0.0 0.00 0.00 0.00 82 1026.0
20260502001511 43 97 0.0 0.0 0.00 0.00 0.00 82 1026.2
20260502001430 43 97 0.0 0.0 0.00 0.00 0.00 82 1026.1
20260502001333 43 97 0.0 0.0 0.00 0.00 0.00 82 1026.0
20260502001236 43 97 0.0 0.0 0.00 0.00 0.00 82 1026.0
20260502001131 43 97 0.0 0.0 0.00 0.00 0.00 82 1026.0
20260502001031 44 97 0.0 0.0 0.00 0.00 0.00 82 1026.1
20260502000933 44 97 0.0 0.0 0.00 0.00 0.00 82 1026.1
20260502000841 44 97 0.0 0.0 0.00 0.00 0.00 82 1026.0
20260502000714 44 97 0.0 0.0 0.00 0.00 0.00 82 1026.1
20260502000618 44 97 0.0 0.0 0.00 0.00 0.00 81 1026.1
20260502000519 44 97 0.0 0.0 0.00 0.00 0.00 81 1026.1
20260502000412 44 97 0.0 0.0 0.00 0.00 0.00 81 1026.0
20260502000317 44 97 0.0 0.0 0.00 0.00 0.00 81 1026.1
20260502000049 44 97 0.0 0.0 0.00 0.00 0.00 80 1026.1
20260502000038 43 97 0.0 0.0 0.00 0.00 0.00 80 1026.2
20260501235942 44 97 0.0 0.0 0.00 0.00 0.00 79 1026.0
20260501235846 44 97 0.0 0.0 0.00 0.00 0.00 79 1026.1
20260501235749 44 97 0.0 0.0 0.00 0.00 0.00 78 1026.1
20260501235643 44 97 0.0 0.0 0.00 0.00 0.00 78 1026.1
20260501235544 44 97 0.0 0.0 0.00 0.00 0.00 77 1026.1
20260501235448 44 97 0.0 0.0 0.00 0.00 0.00 77 1026.1
20260501235354 44 97 0.0 0.0 0.00 0.00 0.00 77 1026.1
20260501235226 44 97 0.0 0.0 0.00 0.00 0.00 77 1026.2
20260501235104 44 97 0.0 0.0 0.00 0.00 0.00 77 1026.2
20260501234947 44 97 0.0 0.0 0.00 0.00 0.00 77 1026.2
20260501234819 44 97 0.0 0.0 0.00 0.00 0.00 77 1026.1
20260501234721 44 97 0.0 0.0 0.00 0.00 0.00 77 1026.1
20260501234543 45 97 0.0 0.0 0.00 0.00 0.00 77 1026.1
20260501234309 45 97 0.0 0.0 0.00 0.00 0.00 77 1026.1
20260501234209 45 97 0.0 0.0 0.00 0.00 0.00 77 1026.2
20260501234050 45 97 0.0 0.0 0.00 0.00 0.00 77 1026.2
20260501234021 44 97 0.0 0.0 0.00 0.00 0.00 77 1026.4
20260501233945 45 97 0.0 0.0 0.00 0.00 0.00 77 1026.1
20260501233848 45 97 0.0 0.0 0.00 0.00 0.00 77 1026.1
20260501233755 45 97 0.0 0.0 0.00 0.00 0.00 77 1026.1
20260501233700 45 97 0.0 0.0 0.00 0.00 0.00 77 1026.1
20260501233631 44 97 0.0 0.0 0.00 0.00 0.00 77 1026.3
20260501233550 45 97 0.0 0.0 0.00 0.00 0.00 78 1026.1
20260501233432 45 97 0.0 0.0 0.00 0.00 0.00 78 1026.2
20260501233315 45 97 0.0 0.0 0.00 0.00 0.00 78 1026.2
20260501233219 45 97 0.0 0.0 0.00 0.00 0.00 78 1026.2
20260501233135 45 97 0.0 0.0 0.00 0.00 0.00 78 1026.4
20260501233047 45 97 0.0 0.0 0.00 0.00 0.00 78 1026.2
20260501232955 45 97 0.0 0.0 0.00 0.00 0.00 78 1026.2
20260501232857 45 97 0.0 0.0 0.00 0.00 0.00 78 1026.2
20260501232751 45 97 0.0 0.0 0.00 0.00 0.00 78 1026.2